TimeEDT,TemperatureF,Dew PointF,Humidity,Sea Level PressureIn,VisibilityMPH,Wind Direction,Wind SpeedMPH,Gust SpeedMPH,PrecipitationIn,Events,Conditions,WindDirDegrees,DateUTC
12:54 AM,48.9,48.9,100,30.28,0.5,Calm,Calm,-,N/A,Fog,Fog,0,2013-10-15 04:54:00
1:54 AM,48.9,46.9,93,30.27,0.5,Calm,Calm,-,N/A,Fog,Fog,0,2013-10-15 05:54:00
2:54 AM,46.9,46.0,97,30.26,0.8,Calm,Calm,-,N/A,,Mostly Cloudy,0,2013-10-15 06:54:00
3:54 AM,48.9,48.0,97,30.26,1.0,Calm,Calm,-,N/A,,Overcast,0,2013-10-15 07:54:00
4:08 AM,50.0,48.2,94,30.25,3.0,Calm,Calm,-,N/A,,Overcast,0,2013-10-15 08:08:00
4:54 AM,51.1,50.0,96,30.25,10.0,Calm,Calm,-,N/A,,Overcast,0,2013-10-15 08:54:00
5:54 AM,52.0,50.0,93,30.25,9.0,Calm,Calm,-,N/A,,Overcast,0,2013-10-15 09:54:00
6:04 AM,51.8,51.8,100,30.26,9.0,Calm,Calm,-,N/A,,Overcast,0,2013-10-15 10:04:00
6:54 AM,52.0,51.1,97,30.25,10.0,Calm,Calm,-,N/A,,Overcast,0,2013-10-15 10:54:00
7:36 AM,51.8,51.8,100,30.26,10.0,Calm,Calm,-,N/A,,Overcast,0,2013-10-15 11:36:00
7:54 AM,53.1,51.1,93,30.25,10.0,Calm,Calm,-,N/A,,Mostly Cloudy,0,2013-10-15 11:54:00
8:54 AM,55.0,53.1,93,30.25,10.0,Calm,Calm,-,N/A,,Mostly Cloudy,0,2013-10-15 12:54:00
9:54 AM,57.9,52.0,81,30.24,10.0,Calm,Calm,-,N/A,,Mostly Cloudy,0,2013-10-15 13:54:00
10:54 AM,60.1,52.0,75,30.22,10.0,Calm,Calm,-,N/A,,Overcast,0,2013-10-15 14:54:00
11:54 AM,62.1,51.1,67,30.20,10.0,Calm,Calm,-,N/A,,Mostly Cloudy,0,2013-10-15 15:54:00
12:54 PM,64.9,53.1,65,30.17,10.0,ESE,4.6,-,N/A,,Mostly Cloudy,110,2013-10-15 16:54:00
1:54 PM,66.0,52.0,60,30.14,10.0,Calm,Calm,-,N/A,,Overcast,0,2013-10-15 17:54:00
2:54 PM,66.0,54.0,65,30.12,10.0,East,5.8,-,N/A,,Overcast,100,2013-10-15 18:54:00
3:54 PM,66.0,54.0,65,30.10,10.0,East,5.8,-,N/A,,Overcast,80,2013-10-15 19:54:00
4:54 PM,64.9,53.1,65,30.09,10.0,ENE,5.8,-,N/A,,Overcast,60,2013-10-15 20:54:00
5:54 PM,62.1,53.1,72,30.06,10.0,East,4.6,-,N/A,,Mostly Cloudy,80,2013-10-15 21:54:00
6:54 PM,60.1,53.1,78,30.07,10.0,Calm,Calm,-,N/A,,Mostly Cloudy,0,2013-10-15 22:54:00
7:54 PM,59.0,53.1,81,30.06,10.0,East,3.5,-,N/A,,Mostly Cloudy,100,2013-10-15 23:54:00
8:54 PM,57.9,53.1,84,30.04,10.0,East,4.6,-,N/A,,Overcast,90,2013-10-16 00:54:00
9:54 PM,57.0,53.1,87,30.03,10.0,East,4.6,-,N/A,,Overcast,90,2013-10-16 01:54:00
10:54 PM,57.9,53.1,84,30.02,10.0,Calm,Calm,-,N/A,,Mostly Cloudy,0,2013-10-16 02:54:00
11:54 PM,57.0,53.1,87,30.01,10.0,East,4.6,-,N/A,,Mostly Cloudy,90,2013-10-16 03:54:00